Starlink 32143

operational
NORAD ID: 60296 Int'l Des: 2024-132 Owner: SPXS Country: US Constellation: starlink
LEOCIRCULAR

About Starlink 32143

Description loading...

Live Position

Loading 3D Globe...

Upcoming Passes

Altitude History

Altitude vs Time

uPlot chart will show altitude changes over time

Two-Line Element Set

1 60296U 24132U 25353.46049764 -.00000034 00000-0 10991-4 0 9995
2 60296 53.1598 65.3264 0001075 92.4096 267.7028 15.30185409 79278
Epoch: Dec 19, 2025 • Age: 14 hours

Current Status

Altitude 480.5 km
Velocity 7.63 km/s
Sub-Earth Point -17.87°S, 56.1°W
Launch Date Jul 28, 2024
Age 1.3 years
Type internet

Technical Details

Classification Payload
Mass 730.00 kg
Dry Mass 700.00 kg
Total Mass 730.00 kg
Length 0.30 m
Diameter 4.10 m
Span 29.00 m
Shape Box + pan
Manufacturer SPXS
Bus Type Starlink V2M
Phase Status In Orbit
Owner/State SPXS/US

Large Constellations

Loading constellations...